H-2A R/B - Orbit

View from above orbital plane
View from above orbital plane
View from above satellite
View from above satellite

Ground track
Ground track

The orbit data is extracted from the following two-line orbital elements,

1 27601U 02056E   13144.19669578  .00000214  00000-0  94628-4 0  8138
2 27601 098.5061 230.3457 0072514 008.6772 050.0928 14.31144505545365
Epoch (UTC): 24 May 2013 04:43:14
Eccentricity: 0.0072514
inclination: 98.5061°
perigee height: 736 km
apogee height: 840 km
right ascension of ascending node: 230.3457°
argument of perigee: 8.6772°
revolutions per day: 14.31144505
mean anomaly at epoch: 50.0928°
orbit number at epoch: 54536

The dashed part of the orbit path shows where the satellite is in the earth's shadow,  

Developed and maintained by Chris Peat, Heavens-Above GmbH. Please read the updated FAQ before sending e-mail. Imprint. DLR